DW3195 Weather Reports


time (UTC)temp
F
wind
direction
speed
knots
gust
knots
rain 1hr
in
rain 24hr
in
rain mn
in
humidity
%
barometer
mb
20260506221005 64 301 3.5 7.0 0.01 0.75 0.66 85 920.8
20260506220505 64 327 2.6 7.8 0.01 0.75 0.66 85 920.9
20260506220005 64 309 3.5 7.8 0.01 0.75 0.66 85 920.9
20260506214505 64 311 4.3 6.1 0.01 0.74 0.65 84 920.9
20260506214005 64 288 2.6 6.1 0.01 0.74 0.65 85 920.8
20260506213505 64 273 4.3 7.0 0.01 0.74 0.65 84 920.8
20260506213005 64 320 2.6 7.8 0.01 0.74 0.65 85 920.7
20260506211504 64 305 4.3 7.8 0.00 0.73 0.64 84 920.9
20260506210005 64 297 4.3 11.3 0.00 0.73 0.64 83 920.7
20260506204505 65 291 6.1 12.2 0.00 0.73 0.64 82 920.6
20260506204005 65 305 4.3 7.8 0.00 0.73 0.64 83 920.5
20260506203504 65 317 3.5 7.8 0.00 0.73 0.64 83 920.5
20260506203005 65 294 2.6 7.8 0.00 0.73 0.64 83 920.6
20260506201504 65 290 4.3 10.4 0.00 0.73 0.64 83 920.5
20260506201005 65 304 4.3 8.7 0.00 0.73 0.64 83 920.6
20260506200504 64 282 4.3 8.7 0.00 0.73 0.64 84 920.7
20260506200005 64 333 5.2 8.7 0.00 0.73 0.64 84 920.8
20260506194504 64 304 5.2 11.3 0.00 0.73 0.64 86 920.8
20260506193504 64 283 2.6 8.7 0.00 0.73 0.64 87 920.7
20260506193005 63 313 2.6 7.8 0.00 0.73 0.64 87 920.7
20260506191505 63 276 4.3 7.8 0.00 0.73 0.64 88 920.6
20260506191005 63 300 4.3 7.0 0.00 0.73 0.64 87 920.7
20260506190504 63 267 4.3 7.0 0.00 0.73 0.64 88 920.7
20260506190006 63 256 4.3 8.7 0.00 0.73 0.64 89 920.9
20260506184506 63 268 5.2 8.7 0.00 0.73 0.64 87 920.6
20260506184007 63 297 4.3 8.7 0.00 0.73 0.64 88 920.7
20260506183506 63 276 6.1 8.7 0.00 0.73 0.64 87 920.6
20260506183006 63 304 5.2 13.0 0.00 0.73 0.64 88 920.6
20260506180506 63 307 2.6 6.1 0.00 0.73 0.64 88 920.7
20260506180006 63 273 5.2 11.3 0.00 0.73 0.67 88 920.7
20260506174506 62 325 4.3 10.4 0.00 0.73 0.67 89 920.7
20260506174006 62 272 4.3 7.0 0.01 0.73 0.67 90 920.6
20260506173506 62 329 3.5 7.0 0.01 0.73 0.67 91 920.8
20260506173006 61 300 4.3 8.7 0.01 0.73 0.67 92 920.9
20260506171506 61 303 3.5 6.1 0.02 0.73 0.67 93 921.1
20260506171006 61 291 2.6 8.7 0.02 0.73 0.67 93 921.2
20260506170505 60 314 3.5 7.8 0.02 0.73 0.67 93 921.1
20260506170006 60 307 2.6 13.0 0.02 0.73 0.67 93 921.1
20260506164506 60 280 4.3 12.2 0.09 0.73 0.67 94 921.0
20260506164006 60 259 3.5 7.8 0.09 0.72 0.65 94 921.4
20260506163506 60 300 3.5 11.3 0.09 0.72 0.65 94 921.6
20260506163006 60 302 5.2 12.2 0.26 0.72 0.65 94 921.6
20260506161506 60 300 4.3 10.4 0.26 0.70 0.65 96 921.6
20260506161005 60 284 2.6 6.1 0.26 0.70 0.65 96 921.9
20260506160506 60 341 3.5 8.7 0.26 0.70 0.65 96 922.2
20260506160006 60 289 2.6 8.7 0.26 0.70 0.65 95 922.3
20260506154505 59 292 3.5 7.8 0.21 0.62 0.58 95 922.1
20260506154005 59 292 2.6 12.2 0.19 0.61 0.56 95 922.0
20260506153505 59 275 5.2 8.7 0.19 0.61 0.56 95 921.8
20260506153005 59 315 3.5 7.8 0.03 0.44 0.39 94 922.0
20260506151006 60 279 4.3 7.8 0.08 0.44 0.39 93 921.5
20260506150505 60 292 6.1 11.3 0.08 0.44 0.39 92 921.3
20260506150005 60 283 3.5 7.8 0.09 0.43 0.38 92 921.2
20260506144006 59 286 4.3 11.3 0.10 0.42 0.37 93 921.1
20260506143506 59 294 5.2 8.7 0.11 0.42 0.37 93 921.1
20260506143006 59 288 4.3 11.3 0.09 0.40 0.36 93 921.0
20260506141505 59 298 5.2 8.7 0.07 0.36 0.32 92 921.0
20260506141005 59 313 4.3 7.8 0.07 0.36 0.31 92 921.0
20260506140505 59 278 5.2 11.3 0.07 0.36 0.31 92 921.0
20260506140005 59 293 3.5 8.7 0.06 0.34 0.29 92 920.9
20260506134505 58 284 4.3 11.3 0.07 0.31 0.27 91 921.0
20260506134005 58 301 4.3 8.7 0.09 0.31 0.27 91 920.9
20260506133505 58 284 5.2 7.8 0.10 0.31 0.27 91 920.9
20260506133006 58 273 4.3 11.3 0.10 0.31 0.26 92 921.0
20260506131505 58 297 5.2 10.4 0.12 0.29 0.25 92 920.8
20260506131005 58 283 5.2 10.4 0.13 0.29 0.25 92 920.8
20260506130505 57 285 5.2 11.3 0.14 0.28 0.25 93 920.7
20260506124505 58 293 5.2 8.7 0.13 0.22 0.19 92 920.9
20260506121504 59 291 3.5 6.1 0.08 0.16 0.13 87 920.1
20260506121005 59 294 4.3 7.8 0.07 0.15 0.12 86 920.1
20260506120505 59 294 3.5 10.4 0.06 0.14 0.11 84 920.3
20260506120005 60 297 5.2 8.7 0.05 0.12 0.09 82 920.3
20260506114504 61 309 1.7 7.0 0.03 0.09 0.06 78 920.0
20260506114005 61 275 3.5 8.7 0.03 0.09 0.06 77 919.8
20260506113505 61 324 2.6 6.1 0.03 0.09 0.06 76 919.9
20260506113004 62 279 3.5 10.4 0.03 0.09 0.06 75 919.7
20260506111505 62 274 4.3 7.8 0.01 0.08 0.05 70 919.4
20260506111005 62 280 3.5 11.3 0.01 0.08 0.05 69 919.4
20260506110505 62 294 2.6 6.1 0.00 0.08 0.05 69 919.3
20260506110004 62 282 4.3 10.4 0.01 0.07 0.04 68 919.2
20260506104504 61 295 5.2 8.7 0.02 0.06 0.03 69 919.0
20260506104005 61 300 2.6 6.1 0.02 0.06 0.03 70 919.0
20260506101505 60 292 2.6 7.8 0.04 0.06 0.04 72 918.8
20260506101005 60 307 2.6 7.8 0.04 0.06 0.04 72 918.7
20260506100005 60 302 4.3 10.4 0.03 0.04 0.03 74 918.9
20260506094506 61 286 3.5 8.7 0.01 0.03 0.01 72 918.8
20260506094006 62 313 4.3 10.4 0.01 0.03 0.01 70 918.8
20260506093506 62 311 2.6 7.0 0.00 0.02 0.00 66 918.7
20260506091506 63 323 4.3 10.4 0.00 0.02 0.00 62 918.9
20260506091006 63 314 5.2 8.7 0.00 0.02 0.00 61 918.7
20260506090506 63 303 2.6 11.3 0.00 0.02 0.00 61 918.9
20260506084506 63 318 5.2 12.2 0.00 0.02 0.00 59 919.0
20260506084006 63 301 4.3 7.0 0.00 0.02 0.00 59 919.1
20260506083506 63 298 3.5 8.7 0.00 0.02 0.00 58 919.0
20260506083005 63 309 4.3 12.2 0.00 0.02 0.00 59 919.0
20260506081505 63 320 6.1 10.4 0.00 0.02 0.00 58 919.0
20260506081006 63 290 4.3 7.8 0.00 0.02 0.00 58 919.0
20260506080506 63 327 4.3 10.4 0.00 0.02 0.00 58 919.0
20260506073006 63 287 2.6 7.0 0.00 0.02 0.00 59 919.4
20260506071506 62 293 2.6 7.0 0.00 0.02 0.00 58 919.5
20260506071005 63 298 2.6 6.1 0.00 0.02 0.00 59 919.3
20260506070506 63 307 1.7 7.0 0.00 0.02 0.00 59 919.5
20260506061005 64 328 2.6 7.0 0.00 0.02 0.00 56 919.6
20260506051005 63 330 2.6 8.7 0.00 0.02 0.00 55 920.5
20260506050505 64 317 2.6 8.7 0.00 0.02 0.00 56 920.5
20260506044505 64 338 3.5 8.7 0.01 0.02 0.00 55 920.7
20260506044005 64 315 2.6 8.7 0.01 0.02 0.00 54 920.6
20260506043505 64 343 5.2 8.7 0.01 0.02 0.00 54 920.5
20260506043005 64 352 5.2 10.4 0.01 0.02 0.00 54 920.5
20260506041505 64 308 3.5 8.7 0.01 0.02 0.00 54 920.5
20260506041005 64 339 4.3 10.4 0.01 0.02 0.00 54 920.5
20260506040505 64 324 5.2 10.4 0.01 0.02 0.00 54 920.6
20260506040005 64 308 2.6 14.8 0.00 0.02 0.00 54 920.6
20260506034505 65 308 4.3 10.4 0.00 0.02 0.01 53 920.7
20260506034005 65 353 4.3 10.4 0.00 0.02 0.01 53 920.7
20260506033505 65 336 5.2 8.7 0.00 0.02 0.01 53 920.7
20260506033006 65 317 3.5 12.2 0.00 0.02 0.01 53 920.6
20260506031505 65 333 4.3 13.0 0.00 0.02 0.01 52 920.6
20260506031006 65 333 6.1 13.0 0.00 0.02 0.01 52 920.5
20260506030505 64 352 3.5 7.0 0.00 0.02 0.01 52 920.4
20260506024505 64 335 5.2 13.0 0.00 0.02 0.01 51 920.8
20260506024005 64 357 4.3 13.0 0.00 0.02 0.01 51 920.7
20260506023505 64 342 3.5 8.7 0.00 0.02 0.01 52 920.8
20260506023004 64 348 4.3 8.7 0.00 0.02 0.01 52 920.9
20260506021504 64 350 3.5 10.4 0.00 0.02 0.01 52 920.8
20260506021005 63 332 2.6 6.1 0.00 0.02 0.01 53 920.9
20260506020504 62 330 4.3 7.8 0.00 0.02 0.01 54 920.9
20260506020005 63 55 1.7 10.4 0.00 0.02 0.01 59 920.9
20260506014004 62 73 0.9 4.3 0.00 0.02 0.01 58 921.0
20260506013505 62 358 1.7 5.2 0.00 0.02 0.01 58 921.1
20260506011504 65 312 3.5 7.8 0.00 0.02 0.01 51 921.0
20260506011005 65 353 2.6 7.0 0.00 0.02 0.01 50 921.0
20260506010006 65 0 2.6 7.8 0.01 0.02 0.01 50 921.0
20260506004506 66 11 1.7 7.0 0.01 0.02 0.01 50 921.1
20260506003506 67 325 0.9 4.3 0.01 0.02 0.01 53 921.1
20260506003006 67 345 2.6 6.1 0.01 0.02 0.01 50 921.0
20260506001505 68 339 2.6 7.8 0.00 0.02 0.00 50 921.1
20260506001006 68 337 2.6 5.2 0.00 0.02 0.00 50 921.1
20260506000506 68 300 2.6 5.2 0.01 0.02 0.01 50 921.1
20260505234506 69 331 3.5 7.0 0.00 0.01 0.00 49 920.8
20260505234005 69 304 2.6 6.1 0.00 0.01 0.00 48 920.8
20260505233506 69 314 2.6 4.3 0.00 0.01 0.00 47 920.8
20260505233005 69 326 0.9 6.1 0.00 0.01 0.00 49 920.8
20260505231505 70 309 1.7 7.0 0.00 0.01 0.00 47 921.0
20260505230506 70 288 1.7 2.6 0.00 0.01 0.00 46 920.9
20260505230006 70 318 1.7 6.1 0.00 0.01 0.00 46 920.9
20260505224006 71 292 1.7 5.2 0.00 0.01 0.00 45 921.0
20260505223005 71 324 3.5 7.0 0.00 0.01 0.00 44 920.9